Home   Weather   Lahti   Past weeks

Flag for Finland Past Weather in Lahti, Finland — Yesterday and Last 2 Weeks

Now
19 °F

Passing clouds.


Feels Like: 9 °F
Forecast: 19 / 22 °F
Wind: 8 mph from Northwest

Location: Utti

Current Time: Dec 10, 2016 at 6:49:06 pm

Latest Report: Dec 10, 2016 at 6:20 pm


Visibility: N/A

Pressure: 29.68 "Hg

Humidity: 86%

Dew Point: 16 °F

Location of LahtiLocation

Past Weather in Lahti — Graph

°F

Lahti Temperature Yesterday

Maximum temperature yesterday: 34 °F (at 12:20 pm)
Minimum temperature yesterday: 23 °F (at 10:50 pm)
Average temperature yesterday: 30 °F

High & Low Weather Summary for the Past Weeks

 TemperatureHumidityPressure
High39 °F (Dec 5, 7:20 am)100% (Nov 26, 2:50 am)30.27 "Hg (Nov 26, 2:50 am)
Low5 °F (Dec 6, 11:50 pm)68% (Dec 5, 6:20 pm)28.94 "Hg (Nov 26, 7:50 pm)
Average25 °F90%29.62 "Hg
* Reported Nov 25 5:20 pm — Dec 10 5:20 pm, Lahti, Weather by CustomWeather, © 2016

Note: Actual official high and low records may vary slightly from our data, if they occured in-between our weather recording intervals... More about our weather records

Advertising

Lahti Weather History for the Previous 24 Hours

Scroll right to see more
 ConditionsComfort  
Time TempWeatherWind HumidityBarometerVisibility
5:20 pm
Sat, Dec 10
19 °FPassing clouds.10 mph86%29.68 "HgN/A
4:50 pm19 °FPassing clouds.9 mph86%29.68 "HgN/A
4:20 pm21 °FPassing clouds.8 mph80%29.68 "HgN/A
3:50 pm21 °FPassing clouds.8 mph80%29.68 "HgN/A
3:20 pm21 °FClear.8 mph80%29.68 "Hg10 mi
2:50 pm21 °FPassing clouds.9 mph80%29.68 "HgN/A
2:20 pm23 °FPassing clouds.9 mph74%29.65 "HgN/A
1:50 pm23 °FPassing clouds.10 mph74%29.65 "HgN/A
1:20 pm23 °FPassing clouds.10 mph74%29.65 "HgN/A
12:50 pm23 °FPassing clouds.8 mph74%29.65 "HgN/A
12:20 pm21 °FPassing clouds.7 mph80%29.65 "HgN/A
11:50 am21 °FPassing clouds.7 mph80%29.65 "HgN/A
11:20 am21 °FPassing clouds.8 mph80%29.65 "HgN/A
10:50 am19 °FPassing clouds.7 mph86%29.65 "HgN/A
10:20 am19 °FPassing clouds.8 mph86%29.65 "HgN/A
9:50 am19 °FPassing clouds.8 mph86%29.62 "HgN/A
9:20 am19 °FPassing clouds.7 mph79%29.62 "HgN/A
8:50 am19 °FPassing clouds.8 mph79%29.62 "HgN/A
8:20 am19 °FPassing clouds.7 mph79%29.62 "HgN/A
7:50 am19 °FPassing clouds.7 mph79%29.62 "HgN/A
7:20 am19 °FClear.7 mph79%29.62 "Hg10 mi
6:50 am19 °FPassing clouds.8 mph79%29.62 "HgN/A
6:20 am21 °FPassing clouds.9 mph80%29.62 "HgN/A
5:50 am21 °FPassing clouds.12 mph80%29.62 "HgN/A
5:20 am21 °FPassing clouds.13 mph80%29.62 "HgN/A
4:50 am21 °FPassing clouds.12 mph80%29.62 "HgN/A
4:20 am21 °FPassing clouds.12 mph80%29.59 "HgN/A
3:50 am23 °FPassing clouds.12 mph74%29.59 "HgN/A
3:20 am21 °FPassing clouds.10 mph74%29.59 "HgN/A
2:50 am21 °FPassing clouds.9 mph80%29.59 "HgN/A
2:20 am23 °FPassing clouds.10 mph74%29.59 "HgN/A
1:50 am23 °FPassing clouds.10 mph74%29.56 "HgN/A
1:20 am23 °FPassing clouds.10 mph74%29.56 "HgN/A
12:50 am23 °FPassing clouds.12 mph74%29.56 "HgN/A
12:20 am23 °FPassing clouds.12 mph74%29.56 "HgN/A
11:50 pm
Fri, Dec 9
23 °FClear.9 mph80%29.56 "Hg10 mi
11:20 pm23 °FPassing clouds.9 mph80%29.56 "HgN/A
10:50 pm23 °FPassing clouds.8 mph74%29.56 "HgN/A
10:20 pm25 °FPassing clouds.10 mph74%29.56 "HgN/A
9:50 pm25 °FPassing clouds.10 mph74%29.56 "HgN/A
9:20 pm25 °FPassing clouds.10 mph80%29.53 "HgN/A
8:50 pm27 °FPassing clouds.9 mph80%29.53 "HgN/A
8:20 pm27 °FPassing clouds.13 mph74%29.53 "HgN/A
7:50 pm28 °FClear.12 mph74%29.50 "Hg10 mi
7:20 pm28 °FPassing clouds.12 mph80%29.47 "HgN/A
6:50 pm28 °FPassing clouds.8 mph93%29.47 "HgN/A
6:20 pm30 °FPassing clouds.8 mph93%29.45 "HgN/A
Weather by CustomWeather, © 2016

See weather overviewHow to use our weather pages